Location: B?jaj?g
(11.7167°N, 92.6667°E)
Time: 16:45:01
(UTC+00:00)

Cosmos 1464 Rocket - Pass Details

Date: 18 September 2020
Orbit: 953 x 1000 km, 82.9° (Epoch: 30 October)

Event Time Altitude Azimuth Distance (km) Brightness Sun altitude
Rises 12:32:58 0° 168° (SSE) 3,628 6.8 -11.8°
Reaches altitude 10° 12:35:35 10° 162° (SSE) 2,679 6.1 -12.5°
Maximum altitude 12:41:20 44° 92° (E) 1,296 4.2 -13.9°
Drops below altitude 10° 12:47:04 10° 22° (NNE) 2,675 6.1 -15.3°
Sets 12:49:40 0° 15° (NNE) 3,622 6.9 -15.9°
